When you browse on this site, cookies collect data to enhance your experience and personalize the content and advertising you see.
Visit our Privacy Policy to learn more. By continuing to use the site, you agree to this use of cookies and data.
  • In Österreich
  • Länderverzeichnis
  • Für 7 Tage
  • Wassertemperatur
  • Satellitenkarten
  • Wetterkarte
  • News
  • Widgets
  • user-avatar
    Anmelden

    Stündliche Wetter Tetuan

    Heute, 13 Dezember, Donnerstag

    Zeit Temperatur Niederschläge Wind Luftdruck Luftfeuchtigkeit
    00:00 +13°C° 0 mm 5 m/S 760 mmHg 87%
    01:00 +13°C° 0 mm 5 m/S 760 mmHg 86%
    02:00 +13°C° 0 mm 6 m/S 760 mmHg 86%
    03:00 +14°C° 0 mm 6 m/S 759 mmHg 86%
    04:00 +13°C° 0 mm 6 m/S 759 mmHg 87%
    05:00 +12°C° 0 mm 7 m/S 759 mmHg 87%
    06:00 +12°C° 0 mm 7 m/S 759 mmHg 88%
    07:00 +13°C° 0.1 mm 8 m/S 758 mmHg 87%
    08:00 +13°C° 0.1 mm 8 m/S 758 mmHg 87%
    09:00 +13°C° 0.1 mm 9 m/S 757 mmHg 86%
    10:00 +13°C° 1.1 mm 9 m/S 757 mmHg 87%
    11:00 +13°C° 1.1 mm 9 m/S 757 mmHg 88%
    12:00 +15°C° 1.1 mm 9 m/S 757 mmHg 89%
    13:00 +13°C° 0.8 mm 9 m/S 757 mmHg 86%
    14:00 +13°C° 0.8 mm 8 m/S 757 mmHg 82%
    15:00 +13°C° 0.8 mm 8 m/S 757 mmHg 78%
    16:00 +12°C° 0 mm 8 m/S 758 mmHg 79%
    17:00 +11°C° 0 mm 7 m/S 758 mmHg 79%
    18:00 +11°C° 0 mm 7 m/S 759 mmHg 80%
    19:00 +10°C° 0 mm 7 m/S 759 mmHg 80%
    20:00 +10°C° 0 mm 6 m/S 760 mmHg 80%
    21:00 +10°C° 0 mm 6 m/S 760 mmHg 81%
    22:00 +10°C° 0.1 mm 6 m/S 761 mmHg 81%
    23:00 +10°C° 0.1 mm 6 m/S 761 mmHg 81%

    Morgen, 14 Dezember, Freitag

    Zeit Temperatur Niederschläge Wind Luftdruck Luftfeuchtigkeit
    00:00 +10°C° 0.1 mm 6 m/S 761 mmHg 81%
    01:00 +10°C° 0 mm 6 m/S 761 mmHg 82%
    02:00 +10°C° 0 mm 6 m/S 761 mmHg 83%
    03:00 +9°C° 0 mm 6 m/S 761 mmHg 83%
    04:00 +9°C° 0 mm 6 m/S 761 mmHg 84%
    05:00 +9°C° 0 mm 5 m/S 761 mmHg 84%
    06:00 +9°C° 0 mm 5 m/S 762 mmHg 85%
    07:00 +10°C° 0 mm 5 m/S 762 mmHg 83%
    08:00 +10°C° 0 mm 5 m/S 763 mmHg 81%
    09:00 +12°C° 0 mm 5 m/S 764 mmHg 78%
    10:00 +13°C° 0 mm 5 m/S 764 mmHg 74%
    11:00 +14°C° 0 mm 5 m/S 764 mmHg 69%
    12:00 +15°C° 0 mm 5 m/S 764 mmHg 64%
    13:00 +15°C° 0 mm 6 m/S 764 mmHg 64%
    14:00 +15°C° 0 mm 6 m/S 763 mmHg 64%
    15:00 +15°C° 0 mm 6 m/S 763 mmHg 64%
    16:00 +13°C° 0 mm 5 m/S 763 mmHg 69%
    17:00 +12°C° 0 mm 5 m/S 763 mmHg 74%
    18:00 +11°C° 0 mm 4 m/S 764 mmHg 79%
    19:00 +11°C° 0 mm 4 m/S 764 mmHg 80%
    20:00 +10°C° 0 mm 4 m/S 764 mmHg 81%
    21:00 +10°C° 0 mm 4 m/S 764 mmHg 82%
    22:00 +10°C° 0 mm 4 m/S 764 mmHg 83%
    23:00 +10°C° 0 mm 4 m/S 764 mmHg 83%

    übermorgen, 15 Dezember, Samstag

    Zeit Temperatur Niederschläge Wind Luftdruck Luftfeuchtigkeit
    00:00 +8°C° 0 mm 4 m/S 764 mmHg 84%
    01:00 +9°C° 0 mm 3 m/S 764 mmHg 83%
    02:00 +9°C° 0 mm 3 m/S 764 mmHg 83%
    03:00 +9°C° 0 mm 3 m/S 764 mmHg 83%
    04:00 +9°C° 0 mm 3 m/S 764 mmHg 83%
    05:00 +9°C° 0 mm 3 m/S 764 mmHg 82%
    06:00 +9°C° 0 mm 3 m/S 764 mmHg 82%
    07:00 +10°C° 0 mm 2 m/S 764 mmHg 78%
    08:00 +12°C° 0 mm 2 m/S 764 mmHg 74%
    09:00 +13°C° 0 mm 2 m/S 765 mmHg 71%
    10:00 +15°C° 0 mm 2 m/S 765 mmHg 65%
    11:00 +16°C° 0 mm 2 m/S 765 mmHg 60%
    12:00 +18°C° 0 mm 2 m/S 764 mmHg 54%
    13:00 +18°C° 0 mm 2 m/S 764 mmHg 55%
    14:00 +18°C° 0 mm 2 m/S 763 mmHg 55%
    15:00 +18°C° 0 mm 2 m/S 763 mmHg 56%
    16:00 +17°C° 0 mm 2 m/S 763 mmHg 63%
    17:00 +15°C° 0 mm 2 m/S 763 mmHg 70%
    18:00 +13°C° 0 mm 2 m/S 763 mmHg 78%
    19:00 +13°C° 0 mm 2 m/S 764 mmHg 78%
    20:00 +13°C° 0 mm 2 m/S 764 mmHg 78%
    21:00 +13°C° 0 mm 2 m/S 764 mmHg 78%
    22:00 +13°C° 0 mm 2 m/S 764 mmHg 77%
    23:00 +12°C° 0 mm 3 m/S 764 mmHg 76%

    16 Dezember, Sonntag

    Zeit Temperatur Niederschläge Wind Luftdruck Luftfeuchtigkeit
    00:00 +11°C° 0 mm 3 m/S 764 mmHg 76%
    01:00 +11°C° 0 mm 3 m/S 763 mmHg 74%
    02:00 +11°C° 0 mm 3 m/S 763 mmHg 73%
    03:00 +11°C° 0 mm 3 m/S 763 mmHg 72%
    04:00 +11°C° 0 mm 3 m/S 763 mmHg 71%
    05:00 +11°C° 0 mm 4 m/S 763 mmHg 69%
    06:00 +11°C° 0 mm 4 m/S 763 mmHg 68%
    07:00 +12°C° 0 mm 4 m/S 763 mmHg 66%
    08:00 +13°C° 0 mm 4 m/S 763 mmHg 65%
    09:00 +13°C° 0 mm 4 m/S 764 mmHg 64%
    10:00 +15°C° 0 mm 4 m/S 764 mmHg 61%
    11:00 +18°C° 0 mm 4 m/S 763 mmHg 58%
    12:00 +19°C° 0 mm 4 m/S 763 mmHg 56%
    13:00 +19°C° 0 mm 4 m/S 763 mmHg 57%
    14:00 +20°C° 0 mm 4 m/S 763 mmHg 58%
    15:00 +20°C° 0 mm 4 m/S 762 mmHg 60%
    16:00 +18°C° 0 mm 4 m/S 763 mmHg 66%
    17:00 +17°C° 0 mm 3 m/S 763 mmHg 72%
    18:00 +14°C° 0 mm 3 m/S 763 mmHg 78%
    19:00 +14°C° 0 mm 3 m/S 764 mmHg 79%
    20:00 +14°C° 0 mm 3 m/S 764 mmHg 80%
    21:00 +14°C° 0 mm 3 m/S 765 mmHg 80%
    22:00 +14°C° 0 mm 3 m/S 765 mmHg 81%
    23:00 +14°C° 0 mm 3 m/S 765 mmHg 82%

    17 Dezember, Montag

    Zeit Temperatur Niederschläge Wind Luftdruck Luftfeuchtigkeit
    00:00 +14°C° 0 mm 3 m/S 765 mmHg 84%
    01:00 +14°C° 0 mm 3 m/S 764 mmHg 84%
    02:00 +13°C° 0 mm 3 m/S 764 mmHg 85%
    03:00 +13°C° 0 mm 3 m/S 764 mmHg 86%
    04:00 +13°C° 0 mm 3 m/S 764 mmHg 87%
    05:00 +14°C° 0 mm 2 m/S 764 mmHg 88%
    06:00 +13°C° 0 mm 2 m/S 764 mmHg 89%
    07:00 +14°C° 0 mm 2 m/S 764 mmHg 85%
    08:00 +15°C° 0 mm 2 m/S 764 mmHg 82%
    09:00 +15°C° 0 mm 1 m/S 765 mmHg 79%
    10:00 +16°C° 0 mm 1 m/S 764 mmHg 72%
    11:00 +18°C° 0 mm 2 m/S 764 mmHg 65%
    12:00 +19°C° 0 mm 2 m/S 764 mmHg 58%
    13:00 +19°C° 0 mm 2 m/S 764 mmHg 57%
    14:00 +19°C° 0 mm 2 m/S 763 mmHg 56%
    15:00 +19°C° 0 mm 2 m/S 762 mmHg 55%
    16:00 +18°C° 0 mm 2 m/S 763 mmHg 62%
    17:00 +16°C° 0 mm 2 m/S 763 mmHg 68%
    18:00 +14°C° 0 mm 1 m/S 763 mmHg 74%
    19:00 +14°C° 0 mm 2 m/S 763 mmHg 75%
    20:00 +14°C° 0 mm 2 m/S 763 mmHg 77%
    21:00 +14°C° 0 mm 2 m/S 763 mmHg 78%
    22:00 +13°C° 0 mm 2 m/S 763 mmHg 78%
    23:00 +13°C° 0 mm 2 m/S 763 mmHg 79%

    18 Dezember, Dienstag

    Zeit Temperatur Niederschläge Wind Luftdruck Luftfeuchtigkeit
    00:00 +13°C° 0 mm 2 m/S 763 mmHg 79%
    01:00 +13°C° 0 mm 2 m/S 762 mmHg 79%
    02:00 +13°C° 0 mm 2 m/S 762 mmHg 79%
    03:00 +13°C° 0 mm 2 m/S 762 mmHg 78%
    04:00 +13°C° 0 mm 2 m/S 762 mmHg 77%
    05:00 +13°C° 0 mm 2 m/S 762 mmHg 76%
    06:00 +13°C° 0 mm 2 m/S 762 mmHg 75%
    07:00 +14°C° 0 mm 2 m/S 762 mmHg 72%
    08:00 +15°C° 0 mm 2 m/S 762 mmHg 69%
    09:00 +16°C° 0 mm 2 m/S 762 mmHg 66%
    10:00 +17°C° 0 mm 2 m/S 762 mmHg 63%
    11:00 +18°C° 0 mm 2 m/S 762 mmHg 59%
    12:00 +20°C° 0 mm 2 m/S 762 mmHg 56%
    13:00 +20°C° 0 mm 3 m/S 761 mmHg 56%
    14:00 +20°C° 0 mm 3 m/S 761 mmHg 57%
    15:00 +20°C° 0 mm 4 m/S 760 mmHg 58%
    16:00 +19°C° 0 mm 3 m/S 760 mmHg 65%
    17:00 +17°C° 0 mm 3 m/S 760 mmHg 72%
    18:00 +14°C° 0 mm 3 m/S 760 mmHg 79%
    19:00 +14°C° 0 mm 3 m/S 761 mmHg 79%
    20:00 +14°C° 0 mm 3 m/S 761 mmHg 79%
    21:00 +14°C° 0 mm 4 m/S 761 mmHg 78%
    22:00 +14°C° 0 mm 4 m/S 761 mmHg 76%
    23:00 +14°C° 0 mm 4 m/S 760 mmHg 75%
    Mehr zeigen